User: anonymous
Location: Caltech
(34.1382°N, 118.1253°W)
Time: 23:32:43
(UTC-07:00)
Language:

BREEZE M DEB (TANK) - Orbit

View from above orbital plane
View from above orbital plane
View from above satellite
View from above satellite

Ground track
Ground track

The orbit data is extracted from the following two-line orbital elements,

1 33437U 08057B   14212.78536213  .00002276  00000-0  71257-3 0   673
2 33437 049.5732 061.9129 5007093 034.3890 006.8763 05.55740891115125
Epoch (UTC): 31 July 2014 18:50:55
Eccentricity: 0.5007093
inclination: 49.5732°
perigee height: 344 km
apogee height: 13826 km
right ascension of ascending node: 61.9129°
argument of perigee: 34.3890°
revolutions per day: 5.55740891
mean anomaly at epoch: 6.8763°
orbit number at epoch: 11512

The dashed part of the orbit path shows where the satellite is in the earth's shadow,  

DLR